{"data":{"norad_id":43912,"intl_designator":"2018-112D","name":"YUNHAI-2 01D","alt_names":[],"object_type":"PAYLOAD","status":"ACTIVE","operator":null,"country":"PRC","launch_date":"2018-12-29","launch_site_code":"JSC","launch_vehicle":null,"mission":null,"orbit_class":"UNKNOWN","rcs_meters":null,"size_class":null,"mass_kg":null,"dimensions":null,"purposes":[],"wikipedia_slug":null,"has_3d_model":false,"image_url":null,"decayed_at":null,"tle_current":{"epoch":"2026-09-20T05:28:18.145056Z","epoch_age_seconds":81968,"freshness":"FRESH","line1":"1 43912U 18112D   26263.22798779 -.00000044  00000+0  46236-4 0  9995","line2":"2 43912  50.0093 243.9776 0015803 319.1461  40.8269 14.29062098401171","mean_motion":14.29062098,"eccentricity":0.0015803,"inclination_deg":50.0093,"raan_deg":243.9776,"arg_perigee_deg":319.1461,"mean_anomaly_deg":40.8269,"bstar":4.6236e-5,"rev_number":40117,"period_min":100.76539025248,"perigee_km":783.53206865886,"apogee_km":806.20306689578,"semimajor_km":7173.0045677773,"source":"CELESTRAK","updated_at":"2026-09-20T09:00:14.418166Z"}}}